Location: Newark
(49.1000°N, 0.4667°W)
Time: 10:55:03
(UTC+00:00)

BEESAT 3 - Pass Details

Date: 09 July 2020
Orbit: 482 x 522 km, 64.9° (Epoch: 10 August)

Event Time Altitude Azimuth Distance (km) Brightness Sun altitude
Rises 02:07:42 0° 325° (NW) 2,659 ? -13.7°
Reaches altitude 10° 02:11:06 10° 356° (N) 1,763 ? -13.4°
Maximum altitude 02:12:48 12° 21° (NNE) 1,614 ? -13.3°
Drops below altitude 10° 02:14:29 10° 47° (NE) 1,754 ? -13.2°
Sets 02:17:51 0° 78° (ENE) 2,630 ? -12.9°
